Data for 06/09/2017

Time Sea-Level Adjusted Pressure Absolute Pressure Temperature Relative Humidity Dew Point   
(mb) (inHg) (mb) (inHg) (C) (F) (%) (C) (F)
00:05 1011 29.85 840 24.81 18.5 65.2 48 7.5 45.5
00:10 1011 29.85 840 24.81 18.2 64.7 48 7.1 44.8
00:15 1011 29.85 840 24.81 18.3 65 47 6.8 44.3
00:20 1011 29.85 840 24.81 18.3 65 48 7.2 44.9
00:25 1011 29.85 840 24.81 18.1 64.5 49 7.2 45
00:30 1011 29.85 840 24.81 17.9 64.2 49 7.2 44.9
00:35 1011 29.85 840 24.81 17.8 64 50 7.4 45.3
00:40 1011 29.85 840 24.81 17.4 63.3 52 7.5 45.5
00:45 1011 29.85 840 24.81 17 62.6 53 7.4 45.4
00:50 1011 29.85 840 24.81 16.8 62.2 53 7.3 45.2
00:55 1011 29.85 841 24.83 16.8 62.2 53 7.1 44.8
01:00 1011 29.85 841 24.83 16.9 62.5 51 6.9 44.4
01:05 1011 29.85 841 24.83 17.2 62.9 50 6.9 44.4
01:10 1011 29.85 840 24.81 17.2 63 50 6.9 44.5
01:15 1011 29.85 840 24.81 17.1 62.9 51 7 44.5
01:20 1011 29.85 840 24.81 17 62.6 51 6.9 44.4
01:25 1011 29.85 840 24.81 16.9 62.4 51 6.9 44.5
01:30 1011 29.85 840 24.81 16.7 62 52 7 44.6
01:35 1011 29.85 840 24.81 16.5 61.7 53 6.9 44.5
01:40 1011 29.85 840 24.81 16.4 61.5 54 7.1 44.8
01:45 1011 29.85 840 24.81 16.1 60.9 56 7.3 45.2
01:50 1011 29.85 840 24.81 15.7 60.3 57 7.2 45
01:55 1011 29.85 840 24.81 15.6 60.1 56 7 44.6
02:00 1011 29.85 840 24.81 15.7 60.2 56 7 44.6
02:05 1011 29.85 840 24.81 15.7 60.2 57 7.2 45
02:10 1011 29.85 840 24.81 15.4 59.8 58 7.2 44.9
02:15 1011 29.85 840 24.81 15.3 59.5 57 7 44.5
02:20 1011 29.85 840 24.81 15.4 59.6 56 6.7 44
02:25 1011 29.85 840 24.81 15.6 60 55 6.7 44
02:30 1011 29.85 840 24.81 15.7 60.2 55 6.8 44.2
02:35 1011 29.85 840 24.81 15.7 60.3 57 7.2 44.9
02:40 1011 29.85 840 24.81 15.4 59.7 56 6.8 44.2
02:45 1011 29.85 840 24.81 15.1 59.2 58 6.9 44.4
02:50 1011 29.85 840 24.81 14.7 58.5 58 6.7 44
02:55 1011 29.85 840 24.81 14.7 58.4 58 6.5 43.8
03:00 1011 29.85 840 24.81 14.7 58.5 58 6.5 43.7
03:05 1011 29.85 840 24.81 14.7 58.4 58 6.7 44
03:10 1011 29.85 840 24.81 14.5 58.1 59 6.6 44
03:15 1011 29.85 840 24.81 14.4 57.9 59 6.5 43.6
03:20 1011 29.85 840 24.81 14.5 58.1 60 6.8 44.3
03:25 1011 29.85 840 24.81 14.3 57.7 60 6.8 44.2
03:30 1011 29.85 840 24.81 13.9 57 61 6.5 43.6
03:35 1011 29.85 840 24.81 13.5 56.4 61 6.3 43.4
03:40 1011 29.85 841 24.83 13.5 56.3 61 6.3 43.3
03:45 1011 29.85 841 24.83 13.3 55.9 64 6.6 43.9
03:50 1011 29.85 841 24.83 12.7 54.9 66 6.7 44
03:55 1011 29.85 841 24.83 12.3 54.1 67 6.4 43.5
04:00 1011 29.85 841 24.83 12.2 54 67 6.3 43.4
04:05 1011 29.85 841 24.83 12.2 54 67 6.3 43.4
04:10 1011 29.85 841 24.83 12.2 53.9 67 6.3 43.3
04:15 1011 29.85 841 24.83 12 53.7 67 6.2 43.2
04:20 1011 29.85 841 24.83 12 53.6 67 6.2 43.2
04:25 1011 29.85 841 24.83 12 53.6 67 6.2 43.1
04:30 1011 29.85 841 24.83 12.1 53.7 67 6.2 43.2
04:35 1012 29.88 841 24.83 12.2 53.9 68 6.4 43.5
04:40 1012 29.88 841 24.83 12.2 54 67 6.3 43.3
04:45 1012 29.88 841 24.83 12.4 54.3 66 6.3 43.4
04:50 1012 29.88 841 24.83 12.4 54.4 66 6.4 43.4
04:55 1012 29.88 841 24.83 12.4 54.4 66 6.2 43.2
05:00 1012 29.88 841 24.83 12.5 54.4 64 5.9 42.7
05:05 1012 29.88 841 24.83 12.6 54.7 63 5.8 42.5
05:10 1012 29.88 841 24.83 12.7 54.8 64 6.1 42.9
05:15 1012 29.88 841 24.83 12.2 54 66 6.2 43.1
05:20 1012 29.88 841 24.83 11.9 53.4 68 6.2 43.1
05:25 1012 29.88 841 24.83 12 53.6 68 6.2 43.2
05:30 1012 29.88 841 24.83 12.1 53.8 68 6.3 43.4
05:35 1012 29.88 841 24.83 12.2 53.9 68 6.4 43.5
05:40 1012 29.88 841 24.83 11.9 53.4 70 6.6 44
05:45 1012 29.88 841 24.83 11.3 52.3 71 6.3 43.3
05:50 1012 29.88 841 24.83 11.5 52.7 70 6.2 43.2
05:55 1012 29.88 841 24.83 11.9 53.4 68 6.2 43.1
06:00 1012 29.88 841 24.83 12 53.6 69 6.5 43.6
06:05 1012 29.88 841 24.83 11.8 53.2 68 6.1 43
06:10 1012 29.88 841 24.83 12.1 53.9 66 6 42.8
06:15 1012 29.88 841 24.83 12.6 54.7 64 6 42.8
06:20 1012 29.88 841 24.83 13 55.3 62 5.9 42.6
06:25 1012 29.88 841 24.83 13.2 55.7 62 6 42.9
06:30 1012 29.88 841 24.83 13.2 55.7 60 5.8 42.4
06:35 1013 29.91 842 24.86 13.5 56.4 60 6.1 43
06:40 1013 29.91 842 24.86 13.6 56.5 60 6.1 42.9
06:45 1013 29.91 842 24.86 13.7 56.7 61 6.4 43.6
06:50 1013 29.91 842 24.86 13.6 56.5 63 6.7 44.1
06:55 1013 29.91 842 24.86 13.7 56.7 54 4.7 40.4
07:00 1013 29.91 842 24.86 14 57.3 53 4.6 40.3
07:05 1013 29.91 842 24.86 14 57.1 55 5.2 41.4
07:10 1013 29.91 842 24.86 13.6 56.5 56 5.1 41.2
07:15 1013 29.91 842 24.86 13.5 56.3 55 4.6 40.3
07:20 1013 29.91 842 24.86 13.6 56.5 54 4.6 40.3
07:25 1013 29.91 842 24.86 13.8 56.8 53 4.5 40.2
07:30 1013 29.91 842 24.86 13.9 57 52 4.4 39.9
07:35 1013 29.91 842 24.86 14 57.1 53 4.5 40.1
07:40 1013 29.91 842 24.86 14.1 57.3 52 4.5 40.1
07:45 1013 29.91 842 24.86 14.2 57.5 52 4.6 40.3
07:50 1013 29.91 842 24.86 14.2 57.6 54 5 41
07:55 1013 29.91 842 24.86 14.3 57.7 55 5.5 41.9
08:00 1013 29.91 842 24.86 14.1 57.3 55 5.3 41.5
08:05 1013 29.91 842 24.86 13.9 57 56 5.4 41.8
08:10 1013 29.91 842 24.86 13.8 56.8 56 5.2 41.3
08:15 1013 29.91 842 24.86 13.8 56.8 55 5 41
08:20 1013 29.91 842 24.86 13.8 56.8 54 4.7 40.5
08:25 1013 29.91 842 24.86 13.8 56.9 53 4.5 40.1
08:30 1013 29.91 842 24.86 13.9 57.1 52 4.3 39.8
08:35 1013 29.91 843 24.89 14 57.2 51 4.1 39.3
08:40 1013 29.91 843 24.89 13.9 57 53 4.5 40.1
08:45 1014 29.94 843 24.89 13.9 57.1 53 4.5 40.2
08:50 1014 29.94 843 24.89 14 57.2 49 3.4 38.1
08:55 1014 29.94 843 24.89 14.1 57.3 48 3.4 38.2
09:00 1013 29.91 843 24.89 14.1 57.4 49 3.5 38.3
09:05 1013 29.91 843 24.89 14.1 57.4 49 3.6 38.4
09:10 1014 29.94 843 24.89 14 57.2 51 4 39.3
09:15 1014 29.94 843 24.89 13.8 56.8 52 4 39.3
09:20 1014 29.94 843 24.89 13.7 56.6 54 4.5 40.2
09:25 1014 29.94 843 24.89 13.7 56.6 53 4.3 39.8
09:30 1014 29.94 843 24.89 13.6 56.4 53 4.2 39.6
09:35 1014 29.94 843 24.89 13.4 56 56 4.8 40.7
09:40 1013 29.91 843 24.89 13.3 55.9 58 5.2 41.3
09:45 1013 29.91 843 24.89 13 55.4 58 5.1 41.2
09:50 1013 29.91 842 24.86 12.9 55.2 58 5 41
09:55 1013 29.91 842 24.86 12.9 55.2 59 5.2 41.3
10:00 1013 29.91 842 24.86 13.1 55.6 59 5.4 41.7
10:05 1013 29.91 842 24.86 12.9 55.3 62 6 42.7
10:10 1013 29.91 842 24.86 12.7 54.9 63 5.9 42.6
10:15 1013 29.91 842 24.86 12.7 54.8 59 5 41
10:20 1012 29.88 842 24.86 12.6 54.7 63 5.8 42.4
10:25 1012 29.88 842 24.86 12.6 54.7 62 5.6 42.1
10:30 1012 29.88 841 24.83 12.5 54.5 60 5.1 41.1
10:35 1012 29.88 841 24.83 12.6 54.6 63 5.8 42.4
10:40 1012 29.88 841 24.83 12.6 54.7 62 5.7 42.2
10:45 1012 29.88 841 24.83 12.5 54.6 63 5.7 42.3
10:50 1012 29.88 841 24.83 12.4 54.3 62 5.3 41.6
10:55 1012 29.88 841 24.83 12.5 54.4 62 5.5 41.9
11:00 1012 29.88 841 24.83 12.5 54.4 60 5 41
11:05 1012 29.88 841 24.83 12.7 54.8 59 4.8 40.7
11:10 1012 29.88 841 24.83 12.9 55.2 58 4.8 40.7
11:15 1012 29.88 841 24.83 13.2 55.8 55 4.5 40.1
11:20 1012 29.88 841 24.83 13.5 56.4 53 4.3 39.8
11:25 1012 29.88 841 24.83 14 57.2 45 2.2 36
11:30 1011 29.85 841 24.83 15.1 59.1 45 3.2 37.7
11:35 1011 29.85 841 24.83 15.6 60.2 42 3 37.4
11:40 1011 29.85 841 24.83 15.8 60.5 44 3.7 38.7
11:45 1011 29.85 841 24.83 16 60.7 42 3.1 37.6
11:50 1011 29.85 841 24.83 16.5 61.7 42 3.5 38.3
11:55 1011 29.85 841 24.83 16.7 62.1 40 3.1 37.6
12:00 1011 29.85 840 24.81 16.7 62.1 39 2.7 36.8
12:05 1011 29.85 840 24.81 16.5 61.7 38 2.4 36.3
12:10 1011 29.85 840 24.81 16.5 61.7 40 2.9 37.2
12:15 1011 29.85 840 24.81 16.4 61.5 37 2 35.5
12:20 1011 29.85 840 24.81 16.2 61.2 35 0.9 33.7
12:25 1011 29.85 840 24.81 16.3 61.3 39 2.5 36.6
12:30 1011 29.85 840 24.81 16.6 61.8 36 1.7 35
12:35 1011 29.85 840 24.81 16.7 62.1 34 0.7 33.3
12:40 1011 29.85 840 24.81 17 62.5 34 1 33.8
12:45 1011 29.85 840 24.81 16.9 62.4 34 0.9 33.6
12:50 1011 29.85 840 24.81 16.8 62.3 34 1 33.8
12:55 1011 29.85 840 24.81 16.8 62.3 33 0.6 33.1
13:00 1011 29.85 840 24.81 17.1 62.8 32 0.4 32.7
13:05 1011 29.85 840 24.81 17.2 63 30 -0.5 31.1
13:10 1010 29.83 840 24.81 17.2 63 28 -1.2 29.8
13:15 1011 29.85 840 24.81 17.4 63.3 28 -1 30.2
13:20 1010 29.83 840 24.81 17.5 63.5 28 -1.1 30
13:25 1010 29.83 839 24.78 17.6 63.7 31 0.3 32.6
13:30 1010 29.83 839 24.78 17.4 63.2 28 -1.2 29.9
13:35 1010 29.83 839 24.78 17.4 63.3 28 -1.3 29.7
13:40 1010 29.83 839 24.78 17.7 63.8 27 -1.5 29.3
13:45 1010 29.83 839 24.78 17.6 63.6 29 -0.8 30.6
13:50 1010 29.83 839 24.78 17.8 64 28 -0.8 30.6
13:55 1010 29.83 839 24.78 17.5 63.6 29 -0.6 31
14:00 1010 29.83 839 24.78 17.6 63.6 29 -0.5 31.2
14:05 1010 29.83 839 24.78 17.7 63.9 30 0.2 32.4
14:10 1010 29.83 839 24.78 17.7 63.8 28 -0.9 30.4
14:15 1010 29.83 839 24.78 17.7 63.8 29 -0.7 30.8
14:20 1010 29.83 839 24.78 17.7 63.9 27 -1.5 29.3
14:25 1010 29.83 839 24.78 17.9 64.1 30 0.1 32.2
14:30 1010 29.83 839 24.78 18.1 64.6 28 -0.8 30.6
14:35 1009 29.8 839 24.78 18 64.5 29 -0.1 31.9
14:40 1009 29.8 838 24.75 18.1 64.5 28 -0.4 31.3
14:45 1009 29.8 838 24.75 18 64.5 28 -0.8 30.6
14:50 1009 29.8 838 24.75 18.1 64.5 28 -0.8 30.5
14:55 1009 29.8 838 24.75 17.9 64.1 27 -1.1 30
15:00 1009 29.8 838 24.75 17.7 63.8 28 -1.2 29.8
15:05 1009 29.8 838 24.75 17.7 63.8 27 -1.6 29.1
15:10 1009 29.8 838 24.75 18 64.4 26 -1.7 29
15:15 1009 29.8 838 24.75 17.8 64 28 -0.7 30.7
15:20 1009 29.8 838 24.75 17.6 63.6 29 -0.6 31
15:25 1009 29.8 838 24.75 17.6 63.7 27 -1.3 29.7
15:30 1009 29.8 838 24.75 17.8 64 28 -0.8 30.5
15:35 1009 29.8 838 24.75 18.1 64.6 28 -0.6 31
15:40 1009 29.8 838 24.75 18 64.3 29 -0.4 31.4
15:45 1009 29.8 838 24.75 18 64.4 29 -0.4 31.3
15:50 1009 29.8 838 24.75 17.7 63.9 30 -0.1 31.9
15:55 1009 29.8 838 24.75 17.7 63.8 30 0.2 32.4
16:00 1009 29.8 838 24.75 17.8 64 28 -1 30.2
16:05 1009 29.8 838 24.75 17.6 63.6 30 -0.3 31.4
16:10 1009 29.8 838 24.75 17.9 64.2 27 -1.5 29.3
16:15 1009 29.8 838 24.75 18.1 64.5 28 -0.8 30.5
16:20 1009 29.8 838 24.75 17.8 64 29 -0.3 31.5
16:25 1009 29.8 838 24.75 17.8 64.1 26 -1.9 28.6
16:30 1009 29.8 838 24.75 17.7 63.8 28 -0.9 30.5
16:35 1009 29.8 838 24.75 17.7 63.9 29 -0.6 30.8
16:40 1008 29.77 838 24.75 17.7 63.8 27 -1.2 29.8
16:45 1008 29.77 838 24.75 17.6 63.7 29 -0.7 30.7
16:50 1008 29.77 838 24.75 17.5 63.6 28 -0.9 30.4
16:55 1008 29.77 838 24.75 17.4 63.3 29 -0.8 30.5
17:00 1009 29.8 838 24.75 17.3 63.2 30 -0.3 31.5
17:05 1009 29.8 838 24.75 17.4 63.3 30 -0 32
17:10 1009 29.8 838 24.75 17.3 63.2 30 -0.4 31.2
17:15 1009 29.8 838 24.75 17.3 63.1 38 2.8 37
17:20 1009 29.8 838 24.75 16.4 61.5 46 4.7 40.5
17:25 1009 29.8 838 24.75 15.4 59.7 49 4.7 40.5
17:30 1009 29.8 838 24.75 14.8 58.6 49 4.4 39.9
17:35 1009 29.8 838 24.75 14.4 57.9 49 4 39.2
17:40 1009 29.8 839 24.78 14.1 57.4 53 4.7 40.5
17:45 1010 29.83 839 24.78 13.8 56.8 56 5.1 41.2
17:50 1010 29.83 839 24.78 13.3 55.9 61 6 42.8
17:55 1010 29.83 839 24.78 12.9 55.3 63 6.2 43.1
18:00 1010 29.83 839 24.78 12.5 54.6 65 6.1 43.1
18:05 1010 29.83 839 24.78 12 53.5 69 6.4 43.5
18:10 1010 29.83 839 24.78 11.7 53 66 5.6 42.1
18:15 1010 29.83 839 24.78 11.4 52.6 67 5.6 42.1
18:20 1010 29.83 839 24.78 11.5 52.6 64 5 40.9
18:25 1010 29.83 839 24.78 11.6 52.9 63 4.8 40.6
18:30 1010 29.83 839 24.78 11.7 53.1 61 4.5 40.1
18:35 1009 29.8 839 24.78 11.8 53.2 62 4.7 40.5
18:40 1010 29.83 839 24.78 12 53.6 61 4.7 40.4
18:45 1009 29.8 839 24.78 12.1 53.8 59 4.4 39.8
18:50 1010 29.83 839 24.78 12.4 54.2 59 4.7 40.4
18:55 1010 29.83 839 24.78 12.4 54.3 63 5.6 42.1
19:00 1010 29.83 839 24.78 11.9 53.4 69 6.5 43.7
19:05 1010 29.83 839 24.78 11.2 52.1 74 6.7 44.1
19:10 1010 29.83 839 24.78 10.6 51.2 76 6.6 43.9
19:15 1010 29.83 839 24.78 10.3 50.6 76 6.3 43.4
19:20 1010 29.83 839 24.78 10 49.9 77 6.1 42.9
19:25 1010 29.83 839 24.78 9.7 49.5 79 6.2 43.1
19:30 1009 29.8 839 24.78 9.4 49 81 6.4 43.5
19:35 1009 29.8 838 24.75 9.2 48.5 82 6.3 43.3
19:40 1009 29.8 838 24.75 9 48.2 81 5.9 42.6
19:45 1009 29.8 838 24.75 9 48.2 80 5.8 42.4
19:50 1009 29.8 838 24.75 9 48.1 81 5.9 42.6
19:55 1009 29.8 838 24.75 9 48.1 82 6 42.8
20:00 1009 29.8 838 24.75 8.9 48 82 6.1 42.9
20:05 1009 29.8 838 24.75 8.9 47.9 83 6.1 42.9
20:10 1009 29.8 838 24.75 8.9 47.9 83 6.2 43.1
20:15 1009 29.8 838 24.75 8.8 47.9 83 6.2 43.2
20:20 1009 29.8 838 24.75 8.9 47.9 82 5.9 42.6
20:25 1009 29.8 838 24.75 9 48.1 80 5.8 42.4
20:30 1009 29.8 838 24.75 9 48.2 81 5.9 42.7
20:35 1009 29.8 838 24.75 9.1 48.3 80 5.8 42.4
20:40 1009 29.8 839 24.78 9.1 48.4 80 5.8 42.4
20:45 1009 29.8 839 24.78 9.1 48.3 80 5.9 42.6
20:50 1010 29.83 839 24.78 9 48.3 81 6 42.7
20:55 1010 29.83 839 24.78 9 48.3 81 5.9 42.7
21:00 1010 29.83 839 24.78 9 48.3 80 5.8 42.4
21:05 1010 29.83 839 24.78 9.1 48.4 77 5.4 41.7
21:10 1010 29.83 839 24.78 9.4 48.8 78 5.7 42.3
21:15 1010 29.83 839 24.78 9.4 48.9 78 5.8 42.4
21:20 1010 29.83 839 24.78 9.4 49 79 6.1 42.9
21:25 1010 29.83 839 24.78 9.5 49 78 5.9 42.6
21:30 1010 29.83 839 24.78 9.5 49.1 79 6.1 43
21:35 1009 29.8 839 24.78 9.4 48.9 81 6.3 43.4
21:40 1010 29.83 839 24.78 9.3 48.7 80 6 42.9
21:45 1010 29.83 839 24.78 9.4 48.8 79 6 42.8
21:50 1010 29.83 839 24.78 9.4 48.9 78 5.7 42.3
21:55 1010 29.83 839 24.78 9.6 49.3 78 6 42.7
22:00 1010 29.83 839 24.78 9.8 49.6 80 6.4 43.6
22:05 1009 29.8 839 24.78 9.6 49.2 80 6.2 43.2
22:10 1009 29.8 839 24.78 9.4 48.8 80 6.1 42.9
22:15 1010 29.83 839 24.78 9.3 48.7 79 5.9 42.6
22:20 1010 29.83 839 24.78 9.2 48.5 79 5.8 42.4
22:25 1010 29.83 839 24.78 9.4 48.8 79 5.8 42.5
22:30 1010 29.83 839 24.78 9.4 48.9 79 6 42.8
22:35 1010 29.83 839 24.78 9.4 48.9 79 5.9 42.7
22:40 1010 29.83 839 24.78 9.3 48.8 77 5.6 42.1
22:45 1010 29.83 839 24.78 9.4 48.9 78 5.8 42.5
22:50 1010 29.83 840 24.81 9.5 49.2 80 6.3 43.4
22:55 1011 29.85 840 24.81 9.5 49 81 6.4 43.6
23:00 1011 29.85 840 24.81 9.4 49 81 6.4 43.6
23:05 1011 29.85 840 24.81 9.5 49.1 81 6.5 43.7
23:10 1011 29.85 840 24.81 9.6 49.2 82 6.6 44
23:15 1011 29.85 840 24.81 9.6 49.2 82 6.6 43.9
23:20 1011 29.85 840 24.81 9.5 49 82 6.6 43.8
23:25 1011 29.85 840 24.81 9.5 49 82 6.5 43.7
23:30 1011 29.85 840 24.81 9.5 49.1 81 6.4 43.6
23:35 1011 29.85 840 24.81 9.4 48.9 78 5.9 42.5
23:40 1011 29.85 841 24.83 9 48.3 76 5 41.1
23:45 1011 29.85 841 24.83 8.3 46.9 80 5.1 41.2
23:50 1011 29.85 841 24.83 8 46.4 85 5.6 42.1
23:55 1011 29.85 841 24.83 7.8 46.1 87 5.8 42.4
24:00 1012 29.88 841 24.83 7.8 46 87 5.7 42.3